| time (UTC) | temp F | wind direction | speed MPH | gust MPH | rain 1hr in | rain 24hr in | rain mn in | humidity % | barometer mb |
| 20260509000834 | 80 | 360 | 0.0 | 2.0 | 0.00 | 0.00 | 0.00 | 84 | 1007.9 |
| 20260509000314 | 80 | 360 | 1.0 | 4.0 | 0.00 | 0.00 | 0.00 | 83 | 1007.9 |
| 20260508235814 | 80 | 360 | 2.0 | 4.0 | 0.00 | 0.00 | 0.00 | 83 | 1007.9 |
| 20260508235313 | 80 | 360 | 1.0 | 4.0 | 0.00 | 0.00 | 0.00 | 83 | 1008.0 |
| 20260508234832 | 80 | 360 | 1.0 | 4.0 | 0.00 | 0.00 | 0.00 | 83 | 1008.0 |
| 20260508234352 | 80 | 360 | 1.0 | 4.0 | 0.00 | 0.00 | 0.00 | 83 | 1008.0 |
| 20260508233831 | 80 | 360 | 0.0 | 4.0 | 0.00 | 0.00 | 0.00 | 82 | 1008.0 |
| 20260508233332 | 81 | 360 | 1.0 | 3.0 | 0.00 | 0.00 | 0.00 | 81 | 1008.0 |
| 20260508232831 | 81 | 360 | 1.0 | 3.0 | 0.00 | 0.00 | 0.00 | 83 | 1008.0 |
| 20260508232332 | 81 | 360 | 0.0 | 3.0 | 0.00 | 0.00 | 0.00 | 82 | 1008.0 |
| 20260508231831 | 81 | 360 | 1.0 | 3.0 | 0.00 | 0.00 | 0.00 | 82 | 1008.0 |
| 20260508231330 | 81 | 360 | 1.0 | 3.0 | 0.00 | 0.00 | 0.00 | 81 | 1008.0 |
| 20260508230815 | 81 | 360 | 1.0 | 3.0 | 0.00 | 0.00 | 0.00 | 81 | 1008.1 |
| 20260508230353 | 81 | 360 | 1.0 | 3.0 | 0.00 | 0.00 | 0.00 | 81 | 1008.2 |
| 20260508225830 | 81 | 360 | 1.0 | 4.0 | 0.00 | 0.00 | 0.00 | 80 | 1008.1 |
| 20260508225329 | 81 | 360 | 1.0 | 5.0 | 0.00 | 0.00 | 0.00 | 81 | 1008.1 |
| 20260508224828 | 81 | 360 | 1.0 | 5.0 | 0.00 | 0.00 | 0.00 | 81 | 1008.0 |
| 20260508224328 | 81 | 360 | 2.0 | 5.0 | 0.00 | 0.00 | 0.00 | 80 | 1008.0 |
| 20260508223826 | 81 | 360 | 2.0 | 4.0 | 0.00 | 0.00 | 0.00 | 82 | 1008.0 |
| 20260508223346 | 81 | 360 | 2.0 | 3.0 | 0.00 | 0.00 | 0.00 | 81 | 1008.0 |
| 20260508222824 | 81 | 360 | 1.0 | 6.0 | 0.00 | 0.00 | 0.00 | 81 | 1008.0 |
| 20260508222322 | 81 | 360 | 3.0 | 6.0 | 0.00 | 0.00 | 0.00 | 80 | 1008.1 |
| 20260508221821 | 80 | 360 | 1.0 | 3.0 | 0.00 | 0.00 | 0.00 | 81 | 1008.1 |
| 20260508221321 | 80 | 360 | 1.0 | 3.0 | 0.00 | 0.00 | 0.00 | 82 | 1008.1 |
| 20260508220821 | 80 | 360 | 1.0 | 4.0 | 0.00 | 0.00 | 0.00 | 81 | 1008.1 |
| 20260508220318 | 80 | 360 | 2.0 | 5.0 | 0.00 | 0.00 | 0.00 | 81 | 1008.3 |
| 20260508215836 | 80 | 360 | 2.0 | 5.0 | 0.00 | 0.00 | 0.00 | 80 | 1008.3 |
| 20260508215334 | 81 | 360 | 2.0 | 4.0 | 0.00 | 0.00 | 0.00 | 80 | 1008.3 |
| 20260508214828 | 81 | 360 | 1.0 | 5.0 | 0.00 | 0.00 | 0.00 | 80 | 1008.4 |
| 20260508214327 | 81 | 360 | 2.0 | 5.0 | 0.00 | 0.00 | 0.00 | 79 | 1008.4 |
| 20260508213826 | 81 | 360 | 1.0 | 3.0 | 0.00 | 0.00 | 0.00 | 79 | 1008.4 |
| 20260508213324 | 81 | 360 | 1.0 | 4.0 | 0.00 | 0.00 | 0.00 | 81 | 1008.5 |
| 20260508212822 | 80 | 360 | 1.0 | 5.0 | 0.00 | 0.00 | 0.00 | 80 | 1008.5 |
| 20260508212321 | 80 | 360 | 3.0 | 5.0 | 0.00 | 0.00 | 0.00 | 80 | 1008.5 |
| 20260508211818 | 80 | 360 | 3.0 | 5.0 | 0.00 | 0.00 | 0.00 | 79 | 1008.5 |
| 20260508211334 | 81 | 360 | 3.0 | 8.0 | 0.00 | 0.00 | 0.00 | 79 | 1008.5 |
| 20260508210831 | 81 | 360 | 3.0 | 6.0 | 0.00 | 0.00 | 0.00 | 79 | 1008.6 |
| 20260508210330 | 81 | 360 | 2.0 | 5.0 | 0.00 | 0.00 | 0.00 | 79 | 1008.7 |
| 20260508205830 | 81 | 360 | 2.0 | 5.0 | 0.00 | 0.00 | 0.00 | 78 | 1008.7 |
| 20260508205328 | 82 | 360 | 2.0 | 5.0 | 0.00 | 0.00 | 0.00 | 77 | 1008.9 |
| 20260508204827 | 82 | 360 | 2.0 | 5.0 | 0.00 | 0.00 | 0.00 | 76 | 1008.9 |
| 20260508204326 | 83 | 360 | 0.0 | 5.0 | 0.00 | 0.00 | 0.00 | 74 | 1008.9 |
| 20260508203828 | 83 | 360 | 2.0 | 8.0 | 0.00 | 0.00 | 0.00 | 75 | 1009.0 |
| 20260508203347 | 83 | 360 | 3.0 | 6.0 | 0.00 | 0.00 | 0.00 | 74 | 1009.0 |
| 20260508202823 | 83 | 360 | 1.0 | 6.0 | 0.00 | 0.00 | 0.00 | 74 | 1009.1 |
| 20260508202323 | 83 | 360 | 2.0 | 6.0 | 0.00 | 0.00 | 0.00 | 76 | 1009.3 |
| 20260508201822 | 83 | 360 | 1.0 | 5.0 | 0.00 | 0.00 | 0.00 | 75 | 1009.3 |
| 20260508201320 | 82 | 360 | 3.0 | 8.0 | 0.00 | 0.00 | 0.00 | 76 | 1009.4 |
| 20260508200818 | 83 | 360 | 2.0 | 6.0 | 0.00 | 0.00 | 0.00 | 74 | 1009.4 |
| 20260508200317 | 83 | 360 | 3.0 | 5.0 | 0.00 | 0.00 | 0.00 | 75 | 1009.5 |
| 20260508195814 | 82 | 360 | 2.0 | 5.0 | 0.00 | 0.01 | 0.00 | 75 | 1009.6 |
| 20260508195332 | 82 | 360 | 3.0 | 5.0 | 0.00 | 0.01 | 0.00 | 76 | 1009.7 |
| 20260508194832 | 82 | 360 | 2.0 | 8.0 | 0.00 | 0.01 | 0.00 | 75 | 1009.7 |
| 20260508194330 | 82 | 360 | 2.0 | 8.0 | 0.00 | 0.01 | 0.00 | 76 | 1009.7 |
| 20260508193827 | 81 | 360 | 3.0 | 5.0 | 0.00 | 0.01 | 0.00 | 76 | 1009.7 |
| 20260508193325 | 82 | 360 | 3.0 | 5.0 | 0.00 | 0.01 | 0.00 | 75 | 1009.8 |
| 20260508192843 | 82 | 360 | 1.0 | 8.0 | 0.00 | 0.01 | 0.00 | 75 | 1010.0 |
| 20260508192319 | 81 | 360 | 2.0 | 8.0 | 0.00 | 0.01 | 0.00 | 75 | 1009.9 |
| 20260508191816 | 81 | 360 | 4.0 | 8.0 | 0.00 | 0.01 | 0.00 | 76 | 1010.0 |
| 20260508191316 | 81 | 360 | 2.0 | 6.0 | 0.00 | 0.01 | 0.00 | 77 | 1010.0 |
| 20260508190815 | 81 | 360 | 3.0 | 5.0 | 0.00 | 0.01 | 0.00 | 76 | 1010.1 |
| 20260508190332 | 81 | 360 | 2.0 | 5.0 | 0.00 | 0.01 | 0.00 | 77 | 1010.3 |
| 20260508185831 | 80 | 360 | 3.0 | 5.0 | 0.00 | 0.01 | 0.00 | 76 | 1010.3 |
| 20260508185329 | 80 | 360 | 1.0 | 5.0 | 0.00 | 0.01 | 0.00 | 76 | 1010.3 |
| 20260508184849 | 80 | 360 | 2.0 | 5.0 | 0.00 | 0.01 | 0.00 | 76 | 1010.4 |
| 20260508184327 | 79 | 360 | 1.0 | 5.0 | 0.00 | 0.01 | 0.00 | 76 | 1010.4 |
| 20260508183824 | 79 | 360 | 3.0 | 5.0 | 0.00 | 0.01 | 0.00 | 76 | 1010.6 |
| 20260508183324 | 79 | 360 | 3.0 | 6.0 | 0.00 | 0.01 | 0.00 | 77 | 1010.6 |
| 20260508182821 | 78 | 360 | 1.0 | 6.0 | 0.00 | 0.01 | 0.00 | 80 | 1010.7 |
| 20260508182319 | 77 | 360 | 2.0 | 6.0 | 0.00 | 0.01 | 0.00 | 80 | 1010.8 |
| 20260508181816 | 76 | 360 | 3.0 | 6.0 | 0.00 | 0.01 | 0.00 | 81 | 1010.9 |
| 20260508181315 | 76 | 360 | 2.0 | 3.0 | 0.00 | 0.01 | 0.00 | 79 | 1011.0 |
| 20260508180814 | 76 | 360 | 1.0 | 3.0 | 0.00 | 0.01 | 0.00 | 81 | 1011.2 |
| 20260508180334 | 75 | 360 | 1.0 | 3.0 | 0.00 | 0.01 | 0.00 | 82 | 1011.3 |
| 20260508175831 | 75 | 360 | 2.0 | 3.0 | 0.00 | 0.01 | 0.00 | 81 | 1011.3 |
| 20260508175330 | 75 | 360 | 2.0 | 3.0 | 0.00 | 0.01 | 0.00 | 81 | 1011.3 |
| 20260508174815 | 75 | 360 | 1.0 | 3.0 | 0.00 | 0.01 | 0.00 | 82 | 1011.3 |
| 20260508174351 | 75 | 360 | 0.0 | 4.0 | 0.00 | 0.01 | 0.00 | 82 | 1011.2 |
| 20260508173829 | 74 | 360 | 2.0 | 4.0 | 0.00 | 0.01 | 0.00 | 81 | 1011.3 |
| 20260508173328 | 74 | 360 | 0.0 | 2.0 | 0.00 | 0.01 | 0.00 | 81 | 1011.4 |
| 20260508172826 | 74 | 360 | 1.0 | 4.0 | 0.00 | 0.01 | 0.00 | 82 | 1011.6 |
| 20260508172324 | 74 | 360 | 1.0 | 4.0 | 0.00 | 0.01 | 0.00 | 82 | 1011.7 |
| 20260508171822 | 73 | 360 | 0.0 | 5.0 | 0.00 | 0.01 | 0.00 | 82 | 1011.5 |
| 20260508171322 | 73 | 360 | 3.0 | 5.0 | 0.00 | 0.01 | 0.00 | 82 | 1011.5 |
| 20260508170820 | 73 | 360 | 2.0 | 4.0 | 0.00 | 0.01 | 0.00 | 82 | 1011.5 |
| 20260508170337 | 73 | 360 | 2.0 | 6.0 | 0.00 | 0.01 | 0.00 | 82 | 1011.7 |
| 20260508165813 | 73 | 360 | 1.0 | 6.0 | 0.00 | 0.01 | 0.00 | 81 | 1011.8 |
| 20260508165314 | 73 | 360 | 2.0 | 4.0 | 0.00 | 0.01 | 0.00 | 81 | 1011.8 |
| 20260508164853 | 73 | 360 | 1.0 | 4.0 | 0.00 | 0.01 | 0.00 | 81 | 1011.8 |
| 20260508164332 | 73 | 360 | 0.0 | 3.0 | 0.00 | 0.01 | 0.00 | 79 | 1011.9 |
| 20260508163831 | 73 | 360 | 1.0 | 3.0 | 0.00 | 0.01 | 0.00 | 81 | 1011.9 |
| 20260508163330 | 73 | 360 | 2.0 | 4.0 | 0.00 | 0.01 | 0.00 | 81 | 1012.0 |
| 20260508162828 | 73 | 360 | 2.0 | 4.0 | 0.00 | 0.01 | 0.00 | 81 | 1012.0 |
| 20260508162326 | 73 | 360 | 0.0 | 2.0 | 0.00 | 0.01 | 0.00 | 79 | 1012.1 |
| 20260508161826 | 73 | 360 | 0.0 | 3.0 | 0.00 | 0.01 | 0.00 | 80 | 1012.2 |
| 20260508161325 | 72 | 360 | 1.0 | 3.0 | 0.00 | 0.01 | 0.00 | 80 | 1012.3 |
| 20260508160824 | 72 | 360 | 1.0 | 4.0 | 0.00 | 0.01 | 0.00 | 81 | 1012.3 |
| 20260508160321 | 71 | 360 | 1.0 | 4.0 | 0.00 | 0.01 | 0.00 | 82 | 1012.3 |
| 20260508155820 | 71 | 360 | 2.0 | 5.0 | 0.00 | 0.01 | 0.00 | 81 | 1012.2 |
| 20260508155319 | 71 | 360 | 3.0 | 5.0 | 0.00 | 0.01 | 0.00 | 83 | 1012.1 |
| 20260508154817 | 70 | 360 | 1.0 | 3.0 | 0.00 | 0.01 | 0.00 | 84 | 1012.3 |
| 20260508154315 | 70 | 360 | 1.0 | 3.0 | 0.00 | 0.01 | 0.00 | 84 | 1012.4 |
| 20260508153815 | 69 | 360 | 1.0 | 3.0 | 0.00 | 0.01 | 0.00 | 83 | 1012.7 |
| 20260508153313 | 69 | 360 | 1.0 | 4.0 | 0.00 | 0.01 | 0.00 | 83 | 1012.8 |
| 20260508152832 | 69 | 360 | 2.0 | 4.0 | 0.00 | 0.01 | 0.00 | 84 | 1012.9 |
| 20260508152332 | 69 | 360 | 1.0 | 4.0 | 0.00 | 0.01 | 0.00 | 84 | 1012.8 |
| 20260508151830 | 69 | 360 | 2.0 | 4.0 | 0.00 | 0.01 | 0.00 | 84 | 1012.7 |
| 20260508151330 | 69 | 360 | 1.0 | 4.0 | 0.00 | 0.01 | 0.00 | 84 | 1013.0 |
| 20260508150829 | 69 | 360 | 2.0 | 6.0 | 0.00 | 0.01 | 0.00 | 84 | 1012.9 |
| 20260508150330 | 69 | 360 | 4.0 | 6.0 | 0.00 | 0.01 | 0.00 | 84 | 1012.7 |
| 20260508145830 | 68 | 360 | 2.0 | 6.0 | 0.00 | 0.01 | 0.00 | 85 | 1012.8 |
| 20260508145329 | 68 | 360 | 1.0 | 6.0 | 0.00 | 0.01 | 0.00 | 85 | 1012.9 |
| 20260508144828 | 68 | 360 | 3.0 | 6.0 | 0.00 | 0.01 | 0.00 | 85 | 1012.8 |
| 20260508144327 | 68 | 360 | 2.0 | 6.0 | 0.00 | 0.01 | 0.00 | 84 | 1012.9 |
| 20260508143853 | 67 | 360 | 1.0 | 5.0 | 0.00 | 0.01 | 0.00 | 86 | 1013.0 |
| 20260508143331 | 67 | 360 | 1.0 | 9.0 | 0.00 | 0.01 | 0.00 | 85 | 1013.0 |
| 20260508142829 | 67 | 360 | 2.0 | 9.0 | 0.00 | 0.01 | 0.00 | 85 | 1013.0 |
| 20260508142347 | 66 | 360 | 3.0 | 5.0 | 0.00 | 0.01 | 0.00 | 85 | 1013.0 |
| 20260508141827 | 66 | 360 | 2.0 | 5.0 | 0.00 | 0.01 | 0.00 | 86 | 1013.0 |
| 20260508141328 | 66 | 360 | 2.0 | 5.0 | 0.00 | 0.01 | 0.00 | 87 | 1012.9 |
| 20260508140826 | 66 | 360 | 2.0 | 5.0 | 0.00 | 0.01 | 0.00 | 87 | 1012.9 |
| 20260508140327 | 65 | 360 | 2.0 | 5.0 | 0.00 | 0.01 | 0.00 | 86 | 1013.1 |
| 20260508135828 | 65 | 360 | 2.0 | 5.0 | 0.00 | 0.01 | 0.00 | 87 | 1013.1 |
| 20260508135314 | 65 | 360 | 1.0 | 4.0 | 0.00 | 0.01 | 0.00 | 88 | 1013.1 |
| 20260508134317 | 64 | 360 | 1.0 | 4.0 | 0.00 | 0.01 | 0.00 | 89 | 1013.3 |
| 20260508133838 | 64 | 360 | 2.0 | 4.0 | 0.00 | 0.01 | 0.00 | 89 | 1013.5 |
| 20260508133317 | 64 | 360 | 1.0 | 4.0 | 0.00 | 0.01 | 0.00 | 89 | 1013.6 |
| 20260508132815 | 64 | 360 | 1.0 | 4.0 | 0.00 | 0.01 | 0.00 | 89 | 1013.6 |
| 20260508132316 | 64 | 360 | 2.0 | 4.0 | 0.00 | 0.01 | 0.00 | 89 | 1013.6 |
| 20260508131833 | 64 | 360 | 2.0 | 4.0 | 0.00 | 0.01 | 0.00 | 89 | 1013.6 |
| 20260508131342 | 64 | 360 | 2.0 | 6.0 | 0.00 | 0.01 | 0.00 | 89 | 1013.5 |
| 20260508130840 | 64 | 360 | 1.0 | 6.0 | 0.00 | 0.01 | 0.00 | 89 | 1013.4 |
| 20260508130329 | 64 | 360 | 1.0 | 5.0 | 0.00 | 0.01 | 0.00 | 89 | 1013.4 |
| 20260508125830 | 64 | 360 | 2.0 | 6.0 | 0.00 | 0.01 | 0.00 | 89 | 1013.3 |
| 20260508125329 | 64 | 360 | 1.0 | 4.0 | 0.00 | 0.01 | 0.00 | 89 | 1013.1 |
| 20260508124830 | 64 | 360 | 1.0 | 4.0 | 0.00 | 0.01 | 0.00 | 89 | 1013.1 |
| 20260508124330 | 64 | 360 | 1.0 | 4.0 | 0.00 | 0.01 | 0.00 | 90 | 1013.0 |
| 20260508123829 | 64 | 360 | 2.0 | 4.0 | 0.00 | 0.01 | 0.00 | 90 | 1012.9 |
| 20260508123329 | 64 | 360 | 2.0 | 4.0 | 0.00 | 0.01 | 0.00 | 90 | 1012.6 |
| 20260508122828 | 64 | 360 | 2.0 | 4.0 | 0.00 | 0.01 | 0.00 | 90 | 1012.6 |
| 20260508122341 | 64 | 360 | 2.0 | 4.0 | 0.00 | 0.01 | 0.00 | 89 | 1012.9 |
| 20260508121817 | 64 | 360 | 1.0 | 4.0 | 0.00 | 0.01 | 0.00 | 90 | 1012.9 |
| 20260508121316 | 64 | 360 | 1.0 | 4.0 | 0.00 | 0.01 | 0.00 | 90 | 1013.0 |
| 20260508120838 | 64 | 360 | 2.0 | 3.0 | 0.00 | 0.01 | 0.00 | 90 | 1013.2 |
| 20260508120318 | 64 | 360 | 1.0 | 2.0 | 0.00 | 0.01 | 0.00 | 90 | 1013.3 |
| 20260508115817 | 64 | 360 | 0.0 | 4.0 | 0.00 | 0.01 | 0.00 | 89 | 1013.4 |
| 20260508115316 | 64 | 360 | 1.0 | 4.0 | 0.00 | 0.01 | 0.00 | 89 | 1013.5 |
| 20260508114817 | 64 | 360 | 1.0 | 3.0 | 0.00 | 0.01 | 0.00 | 89 | 1013.8 |
| 20260508114318 | 63 | 360 | 2.0 | 3.0 | 0.00 | 0.01 | 0.00 | 89 | 1013.8 |
| 20260508113815 | 64 | 360 | 0.0 | 4.0 | 0.00 | 0.01 | 0.00 | 89 | 1013.9 |
| 20260508113336 | 63 | 360 | 1.0 | 4.0 | 0.00 | 0.01 | 0.00 | 89 | 1013.8 |
| 20260508112836 | 63 | 360 | 0.0 | 3.0 | 0.00 | 0.01 | 0.00 | 89 | 1014.0 |
| 20260508112313 | 63 | 360 | 0.0 | 3.0 | 0.00 | 0.01 | 0.00 | 89 | 1013.8 |
| 20260508111813 | 63 | 360 | 0.0 | 3.0 | 0.00 | 0.01 | 0.00 | 89 | 1013.6 |
| 20260508111315 | 63 | 360 | 1.0 | 3.0 | 0.00 | 0.01 | 0.00 | 89 | 1013.6 |
| 20260508110836 | 63 | 360 | 1.0 | 3.0 | 0.00 | 0.01 | 0.00 | 89 | 1013.6 |
| 20260508110315 | 63 | 360 | 0.0 | 2.0 | 0.00 | 0.01 | 0.00 | 89 | 1013.5 |
| 20260508105817 | 63 | 360 | 1.0 | 3.0 | 0.00 | 0.01 | 0.00 | 90 | 1013.5 |
| 20260508105337 | 63 | 360 | 0.0 | 3.0 | 0.00 | 0.01 | 0.00 | 90 | 1013.5 |
| 20260508104816 | 63 | 360 | 1.0 | 5.0 | 0.00 | 0.01 | 0.00 | 90 | 1013.7 |
| 20260508104331 | 63 | 360 | 0.0 | 5.0 | 0.00 | 0.01 | 0.00 | 90 | 1013.5 |
| 20260508103830 | 63 | 360 | 1.0 | 2.0 | 0.00 | 0.01 | 0.00 | 90 | 1013.5 |
| 20260508103319 | 63 | 360 | 0.0 | 2.0 | 0.00 | 0.01 | 0.00 | 90 | 1013.5 |
| 20260508102818 | 63 | 360 | 0.0 | 2.0 | 0.00 | 0.01 | 0.00 | 90 | 1013.5 |
| 20260508102319 | 63 | 360 | 1.0 | 3.0 | 0.00 | 0.01 | 0.00 | 90 | 1013.4 |
| 20260508101830 | 63 | 360 | 1.0 | 3.0 | 0.00 | 0.01 | 0.00 | 90 | 1013.3 |
| 20260508101331 | 63 | 360 | 0.0 | 1.0 | 0.00 | 0.01 | 0.00 | 90 | 1013.3 |
| 20260508100831 | 63 | 360 | 0.0 | 2.0 | 0.00 | 0.01 | 0.00 | 90 | 1013.4 |
| 20260508100352 | 63 | 360 | 0.0 | 3.0 | 0.00 | 0.01 | 0.00 | 90 | 1013.4 |
| 20260508095832 | 63 | 360 | 1.0 | 3.0 | 0.00 | 0.01 | 0.00 | 90 | 1013.3 |
| 20260508095332 | 63 | 360 | 1.0 | 3.0 | 0.00 | 0.01 | 0.00 | 90 | 1013.3 |
| 20260508094831 | 63 | 360 | 1.0 | 3.0 | 0.00 | 0.01 | 0.00 | 90 | 1013.1 |
| 20260508094331 | 63 | 360 | 2.0 | 3.0 | 0.00 | 0.01 | 0.00 | 90 | 1013.3 |
| 20260508093831 | 63 | 360 | 1.0 | 3.0 | 0.00 | 0.01 | 0.00 | 90 | 1013.8 |
| 20260508093353 | 63 | 360 | 1.0 | 4.0 | 0.00 | 0.01 | 0.00 | 90 | 1013.7 |
| 20260508092814 | 63 | 360 | 1.0 | 4.0 | 0.00 | 0.01 | 0.00 | 90 | 1013.7 |
| 20260508092335 | 63 | 360 | 1.0 | 3.0 | 0.00 | 0.01 | 0.00 | 90 | 1013.4 |
| 20260508091813 | 63 | 360 | 0.0 | 4.0 | 0.00 | 0.01 | 0.00 | 91 | 1013.2 |
| 20260508091331 | 63 | 360 | 2.0 | 4.0 | 0.00 | 0.01 | 0.00 | 90 | 1013.5 |
| 20260508090815 | 63 | 360 | 1.0 | 3.0 | 0.00 | 0.01 | 0.00 | 90 | 1013.4 |
| 20260508090331 | 63 | 360 | 2.0 | 3.0 | 0.00 | 0.01 | 0.00 | 90 | 1013.3 |
| 20260508085832 | 63 | 360 | 1.0 | 2.0 | 0.00 | 0.01 | 0.00 | 90 | 1012.9 |
| 20260508085325 | 63 | 360 | 1.0 | 2.0 | 0.00 | 0.01 | 0.00 | 90 | 1013.0 |
| 20260508084813 | 63 | 360 | 1.0 | 1.0 | 0.00 | 0.01 | 0.00 | 90 | 1013.0 |
| 20260508084350 | 63 | 360 | 1.0 | 1.0 | 0.00 | 0.01 | 0.00 | 90 | 1013.3 |
| 20260508083849 | 63 | 360 | 0.0 | 2.0 | 0.00 | 0.01 | 0.00 | 89 | 1013.6 |
| 20260508083330 | 64 | 360 | 1.0 | 1.0 | 0.00 | 0.01 | 0.00 | 88 | 1013.6 |
| 20260508082830 | 64 | 360 | 0.0 | 1.0 | 0.00 | 0.01 | 0.00 | 87 | 1013.4 |
| 20260508082319 | 64 | 360 | 0.0 | 3.0 | 0.00 | 0.01 | 0.00 | 86 | 1013.4 |
| 20260508081816 | 64 | 360 | 1.0 | 3.0 | 0.00 | 0.01 | 0.00 | 86 | 1013.3 |
| 20260508081314 | 64 | 360 | 1.0 | 2.0 | 0.00 | 0.01 | 0.00 | 86 | 1013.3 |
| 20260508080831 | 64 | 360 | 1.0 | 4.0 | 0.00 | 0.01 | 0.00 | 85 | 1013.4 |
| 20260508080320 | 64 | 360 | 1.0 | 4.0 | 0.00 | 0.01 | 0.00 | 84 | 1013.4 |
| 20260508075839 | 64 | 360 | 0.0 | 2.0 | 0.00 | 0.01 | 0.00 | 84 | 1013.4 |
| 20260508075316 | 64 | 360 | 1.0 | 2.0 | 0.00 | 0.01 | 0.00 | 84 | 1013.4 |
| 20260508074838 | 64 | 360 | 1.0 | 2.0 | 0.00 | 0.01 | 0.00 | 84 | 1013.5 |
| 20260508074316 | 64 | 360 | 1.0 | 3.0 | 0.00 | 0.01 | 0.00 | 84 | 1013.6 |
| 20260508073818 | 64 | 360 | 2.0 | 3.0 | 0.00 | 0.01 | 0.00 | 84 | 1013.6 |
| 20260508073319 | 64 | 360 | 0.0 | 4.0 | 0.00 | 0.01 | 0.00 | 83 | 1013.6 |
| 20260508072838 | 64 | 360 | 1.0 | 4.0 | 0.00 | 0.01 | 0.00 | 83 | 1013.5 |
| 20260508072317 | 64 | 360 | 1.0 | 5.0 | 0.00 | 0.01 | 0.00 | 83 | 1013.5 |
| 20260508071817 | 64 | 360 | 2.0 | 6.0 | 0.00 | 0.01 | 0.00 | 83 | 1013.5 |
| 20260508071317 | 64 | 360 | 1.0 | 6.0 | 0.00 | 0.01 | 0.00 | 84 | 1013.6 |
| 20260508070836 | 64 | 360 | 1.0 | 4.0 | 0.00 | 0.01 | 0.00 | 84 | 1013.5 |
| 20260508070316 | 64 | 360 | 1.0 | 4.0 | 0.00 | 0.01 | 0.00 | 84 | 1013.5 |
| 20260508065817 | 64 | 360 | 2.0 | 5.0 | 0.00 | 0.01 | 0.00 | 84 | 1013.8 |
| 20260508065316 | 64 | 360 | 0.0 | 4.0 | 0.00 | 0.01 | 0.00 | 84 | 1013.9 |
| 20260508064837 | 64 | 360 | 1.0 | 4.0 | 0.00 | 0.01 | 0.00 | 84 | 1014.1 |
| 20260508064337 | 64 | 360 | 1.0 | 4.0 | 0.00 | 0.01 | 0.00 | 84 | 1014.0 |
| 20260508063832 | 64 | 360 | 0.0 | 3.0 | 0.00 | 0.01 | 0.00 | 85 | 1014.1 |
| 20260508063352 | 64 | 360 | 1.0 | 4.0 | 0.00 | 0.01 | 0.00 | 84 | 1014.4 |
| 20260508062831 | 64 | 360 | 1.0 | 4.0 | 0.00 | 0.01 | 0.00 | 85 | 1014.4 |
| 20260508062329 | 64 | 360 | 0.0 | 2.0 | 0.00 | 0.01 | 0.00 | 85 | 1014.5 |
| 20260508061829 | 64 | 360 | 0.0 | 4.0 | 0.00 | 0.01 | 0.00 | 85 | 1014.6 |
| 20260508061330 | 64 | 360 | 1.0 | 3.0 | 0.00 | 0.01 | 0.00 | 85 | 1014.7 |
| 20260508060832 | 64 | 360 | 1.0 | 6.0 | 0.00 | 0.01 | 0.00 | 86 | 1014.9 |
| 20260508060329 | 64 | 360 | 1.0 | 6.0 | 0.00 | 0.01 | 0.00 | 85 | 1015.0 |
| 20260508055828 | 63 | 360 | 2.0 | 5.0 | 0.00 | 0.01 | 0.00 | 86 | 1014.8 |
| 20260508055329 | 63 | 360 | 1.0 | 6.0 | 0.00 | 0.01 | 0.00 | 86 | 1014.7 |
| 20260508054830 | 63 | 360 | 2.0 | 6.0 | 0.00 | 0.01 | 0.00 | 86 | 1014.7 |
| 20260508054330 | 63 | 360 | 2.0 | 4.0 | 0.00 | 0.01 | 0.00 | 86 | 1014.4 |
| 20260508053850 | 63 | 360 | 1.0 | 4.0 | 0.00 | 0.01 | 0.00 | 86 | 1014.2 |
| 20260508053328 | 63 | 360 | 1.0 | 3.0 | 0.00 | 0.01 | 0.00 | 85 | 1014.1 |
| 20260508052845 | 63 | 360 | 0.0 | 4.0 | 0.00 | 0.01 | 0.00 | 85 | 1014.2 |
| 20260508052323 | 63 | 360 | 2.0 | 9.0 | 0.00 | 0.01 | 0.00 | 86 | 1014.0 |
| 20260508051824 | 63 | 360 | 1.0 | 9.0 | 0.00 | 0.01 | 0.00 | 86 | 1014.1 |
| 20260508051345 | 63 | 360 | 2.0 | 4.0 | 0.00 | 0.01 | 0.00 | 85 | 1014.2 |
| 20260508050822 | 63 | 360 | 2.0 | 4.0 | 0.00 | 0.01 | 0.00 | 85 | 1013.9 |
| 20260508050320 | 63 | 360 | 1.0 | 3.0 | 0.00 | 0.01 | 0.00 | 85 | 1013.5 |
| 20260508045818 | 63 | 360 | 2.0 | 3.0 | 0.00 | 0.01 | 0.01 | 85 | 1013.3 |
| 20260508045338 | 63 | 360 | 1.0 | 3.0 | 0.00 | 0.01 | 0.01 | 85 | 1013.5 |
| 20260508044817 | 63 | 360 | 0.0 | 4.0 | 0.00 | 0.01 | 0.01 | 85 | 1013.8 |
| 20260508044319 | 63 | 360 | 2.0 | 4.0 | 0.00 | 0.01 | 0.01 | 84 | 1013.8 |
| 20260508043819 | 63 | 360 | 1.0 | 3.0 | 0.00 | 0.01 | 0.01 | 84 | 1013.9 |
| 20260508043318 | 63 | 360 | 1.0 | 3.0 | 0.00 | 0.01 | 0.01 | 84 | 1013.9 |
| 20260508042838 | 63 | 360 | 1.0 | 4.0 | 0.00 | 0.01 | 0.01 | 85 | 1014.2 |
| 20260508042316 | 63 | 360 | 0.0 | 4.0 | 0.00 | 0.01 | 0.01 | 85 | 1014.2 |
| 20260508041837 | 63 | 360 | 0.0 | 5.0 | 0.00 | 0.01 | 0.01 | 84 | 1014.6 |
| 20260508041336 | 63 | 360 | 2.0 | 5.0 | 0.00 | 0.01 | 0.01 | 84 | 1014.8 |
| 20260508040815 | 63 | 360 | 1.0 | 4.0 | 0.00 | 0.01 | 0.01 | 85 | 1014.8 |
| 20260508040335 | 63 | 360 | 1.0 | 3.0 | 0.00 | 0.01 | 0.01 | 85 | 1014.8 |
| 20260508035814 | 64 | 360 | 1.0 | 3.0 | 0.00 | 0.01 | 0.01 | 85 | 1014.8 |
| 20260508035314 | 63 | 360 | 1.0 | 3.0 | 0.00 | 0.01 | 0.01 | 85 | 1015.1 |
| 20260508034814 | 63 | 360 | 1.0 | 3.0 | 0.00 | 0.01 | 0.01 | 85 | 1015.3 |
| 20260508034314 | 63 | 360 | 1.0 | 3.0 | 0.00 | 0.01 | 0.01 | 85 | 1015.4 |
| 20260508033836 | 63 | 360 | 1.0 | 3.0 | 0.00 | 0.01 | 0.01 | 84 | 1015.4 |
| 20260508033315 | 64 | 360 | 0.0 | 1.0 | 0.00 | 0.01 | 0.01 | 84 | 1015.3 |
| 20260508032814 | 64 | 360 | 0.0 | 2.0 | 0.00 | 0.01 | 0.01 | 83 | 1015.0 |
| 20260508032315 | 64 | 360 | 0.0 | 2.0 | 0.00 | 0.01 | 0.01 | 83 | 1014.8 |
| 20260508031814 | 64 | 360 | 0.0 | 3.0 | 0.00 | 0.01 | 0.01 | 83 | 1014.4 |
| 20260508031315 | 64 | 360 | 0.0 | 3.0 | 0.00 | 0.01 | 0.01 | 82 | 1014.3 |
| 20260508030834 | 64 | 360 | 1.0 | 2.0 | 0.00 | 0.01 | 0.01 | 82 | 1014.3 |
| 20260508030313 | 64 | 360 | 0.0 | 4.0 | 0.00 | 0.01 | 0.01 | 82 | 1014.1 |
| 20260508025813 | 64 | 360 | 1.0 | 4.0 | 0.00 | 0.01 | 0.01 | 81 | 1014.0 |
| 20260508025313 | 64 | 360 | 0.0 | 3.0 | 0.00 | 0.01 | 0.01 | 81 | 1013.9 |
| 20260508024831 | 64 | 360 | 1.0 | 8.0 | 0.00 | 0.01 | 0.01 | 81 | 1013.8 |
| 20260508024313 | 64 | 360 | 3.0 | 8.0 | 0.00 | 0.01 | 0.01 | 81 | 1013.5 |
| 20260508023833 | 64 | 360 | 2.0 | 6.0 | 0.00 | 0.01 | 0.01 | 81 | 1013.4 |
| 20260508023341 | 64 | 360 | 2.0 | 6.0 | 0.00 | 0.01 | 0.01 | 81 | 1013.4 |
| 20260508022820 | 64 | 360 | 1.0 | 5.0 | 0.00 | 0.01 | 0.01 | 81 | 1013.2 |
| 20260508022320 | 65 | 360 | 2.0 | 5.0 | 0.00 | 0.01 | 0.01 | 81 | 1013.2 |
| 20260508021813 | 65 | 360 | 1.0 | 6.0 | 0.00 | 0.01 | 0.01 | 81 | 1013.3 |
| 20260508021332 | 65 | 360 | 3.0 | 6.0 | 0.00 | 0.01 | 0.01 | 81 | 1013.3 |
| 20260508020832 | 65 | 360 | 2.0 | 6.0 | 0.00 | 0.01 | 0.01 | 81 | 1013.3 |
| 20260508020313 | 65 | 360 | 1.0 | 6.0 | 0.00 | 0.01 | 0.01 | 80 | 1013.6 |
| 20260508015814 | 65 | 360 | 2.0 | 6.0 | 0.00 | 0.01 | 0.01 | 80 | 1013.7 |
| 20260508015334 | 65 | 360 | 2.0 | 6.0 | 0.00 | 0.01 | 0.01 | 80 | 1014.1 |
| 20260508014814 | 65 | 360 | 1.0 | 6.0 | 0.00 | 0.01 | 0.01 | 79 | 1013.8 |
| 20260508014330 | 65 | 360 | 3.0 | 6.0 | 0.00 | 0.01 | 0.01 | 80 | 1013.8 |
| 20260508013832 | 65 | 360 | 3.0 | 6.0 | 0.00 | 0.01 | 0.01 | 79 | 1013.3 |
| 20260508013331 | 65 | 360 | 2.0 | 8.0 | 0.00 | 0.01 | 0.01 | 79 | 1012.4 |
| 20260508012832 | 65 | 360 | 3.0 | 8.0 | 0.00 | 0.01 | 0.01 | 79 | 1012.1 |
| 20260508012331 | 66 | 360 | 2.0 | 8.0 | 0.00 | 0.01 | 0.01 | 79 | 1012.2 |
| 20260508011831 | 66 | 360 | 2.0 | 4.0 | 0.00 | 0.01 | 0.01 | 79 | 1012.6 |
| 20260508011330 | 66 | 360 | 1.0 | 6.0 | 0.00 | 0.01 | 0.01 | 78 | 1012.9 |
| 20260508010830 | 66 | 360 | 3.0 | 5.0 | 0.00 | 0.01 | 0.01 | 78 | 1013.1 |
| 20260508010323 | 66 | 360 | 1.0 | 5.0 | 0.00 | 0.01 | 0.01 | 77 | 1013.2 |
| 20260508005815 | 67 | 360 | 2.0 | 5.0 | 0.00 | 0.01 | 0.01 | 77 | 1013.3 |
| 20260508005314 | 67 | 360 | 1.0 | 3.0 | 0.00 | 0.01 | 0.01 | 77 | 1013.6 |
| 20260508004816 | 67 | 360 | 2.0 | 5.0 | 0.00 | 0.01 | 0.01 | 76 | 1013.7 |
| 20260508004315 | 67 | 360 | 2.0 | 8.0 | 0.00 | 0.01 | 0.01 | 76 | 1013.9 |
| 20260508003837 | 67 | 360 | 1.0 | 4.0 | 0.00 | 0.01 | 0.01 | 76 | 1014.0 |
| 20260508003315 | 68 | 360 | 1.0 | 5.0 | 0.00 | 0.01 | 0.01 | 75 | 1014.1 |
| 20260508002815 | 68 | 360 | 2.0 | 9.0 | 0.00 | 0.01 | 0.01 | 75 | 1014.3 |
| 20260508002335 | 68 | 360 | 2.0 | 9.0 | 0.00 | 0.01 | 0.01 | 74 | 1014.2 |
| 20260508001815 | 68 | 360 | 2.0 | 9.0 | 0.00 | 0.01 | 0.01 | 74 | 1014.4 |
| 20260508001313 | 69 | 360 | 2.0 | 5.0 | 0.00 | 0.01 | 0.01 | 74 | 1014.5 |